Time,TemperatureF,DewpointF,PressureIn,WindDirection,WindDirectionDegrees,WindSpeedMPH,WindSpeedGustMPH,Humidity,HourlyPrecipIn,Conditions,Clouds,dailyrainin,SoftwareType,DateUTC
2013-06-02 00:02:00,71.7,63.7,30.02,SSW,202,0.0,0.0,76,0.00,,---,0.00,VWS V13.01,2013-06-02 04:02:00,
2013-06-02 00:32:00,74.1,64.5,30.02,SSW,199,1.0,4.0,72,0.00,,---,0.00,VWS V13.01,2013-06-02 04:32:00,
2013-06-02 01:02:00,75.1,64.7,30.00,SSW,195,0.0,4.0,70,0.00,,---,0.00,VWS V13.01,2013-06-02 05:02:00,
2013-06-02 01:32:00,74.3,64.3,29.98,WSW,249,0.0,7.0,71,0.00,,---,0.00,VWS V13.01,2013-06-02 05:32:00,
2013-06-02 02:02:00,73.5,63.9,29.98,South,178,0.0,9.0,72,0.00,,---,0.00,VWS V13.01,2013-06-02 06:02:00,
2013-06-02 02:32:00,73.1,63.5,30.00,South,183,2.0,10.0,72,0.00,,---,0.00,VWS V13.01,2013-06-02 06:32:00,
2013-06-02 03:02:00,72.6,63.8,29.99,South,191,0.0,10.0,74,0.00,,---,0.00,VWS V13.01,2013-06-02 07:02:00,
2013-06-02 03:32:00,71.8,63.5,29.99,South,189,1.0,7.0,75,0.00,,---,0.00,VWS V13.01,2013-06-02 07:32:00,
2013-06-02 04:02:00,71.2,62.9,29.98,North,355,0.0,7.0,75,0.00,,---,0.00,VWS V13.01,2013-06-02 08:02:00,
2013-06-02 04:32:00,71.1,63.2,29.98,East,98,0.0,6.0,76,0.00,,---,0.00,VWS V13.01,2013-06-02 08:32:00,
2013-06-02 05:02:00,70.8,62.9,29.98,SSE,161,2.0,5.0,76,0.00,,---,0.00,VWS V13.01,2013-06-02 09:02:00,
2013-06-02 05:32:00,70.6,62.7,29.98,WNW,286,0.0,9.0,76,0.00,,---,0.00,VWS V13.01,2013-06-02 09:32:00,
2013-06-02 06:02:00,70.2,62.7,29.98,NW,314,0.0,3.0,77,0.00,,---,0.00,VWS V13.01,2013-06-02 10:02:00,
2013-06-02 06:32:00,70.2,63.0,29.99,NW,325,0.0,3.0,78,0.00,,---,0.00,VWS V13.01,2013-06-02 10:32:00,
2013-06-02 07:02:00,70.4,63.2,29.99,NW,308,0.0,3.0,78,0.00,,---,0.00,VWS V13.01,2013-06-02 11:02:00,
2013-06-02 07:32:00,70.7,63.5,29.98,WNW,302,0.0,5.0,78,0.00,,---,0.00,VWS V13.01,2013-06-02 11:32:00,
2013-06-02 08:32:00,71.6,64.4,29.98,West,269,0.0,7.0,78,0.00,,---,0.00,VWS V13.01,2013-06-02 12:32:00,
2013-06-02 09:02:00,72.3,65.1,29.97,North,354,1.0,5.0,78,0.00,,---,0.00,VWS V13.01,2013-06-02 13:02:00,
2013-06-02 09:32:00,72.5,65.3,29.97,WSW,242,0.0,6.0,78,0.00,,---,0.00,VWS V13.01,2013-06-02 13:32:00,
2013-06-02 10:02:00,72.6,65.3,29.96,SSE,168,2.0,9.0,78,0.00,,---,0.00,VWS V13.01,2013-06-02 14:02:00,
2013-06-02 10:32:00,72.9,65.7,29.97,North,354,1.0,9.0,78,0.00,,---,0.00,VWS V13.01,2013-06-02 14:32:00,
2013-06-02 11:02:00,73.2,65.9,29.97,WSW,253,0.0,5.0,78,0.00,,---,0.00,VWS V13.01,2013-06-02 15:02:00,
2013-06-02 11:32:00,74.1,66.4,29.97,NW,311,0.0,4.0,77,0.00,,---,0.00,VWS V13.01,2013-06-02 15:32:00,
2013-06-02 12:02:00,75.3,67.2,29.97,SSW,195,0.0,4.0,76,0.00,,---,0.00,VWS V13.01,2013-06-02 16:02:00,
2013-06-02 12:32:00,74.5,66.4,29.97,North,353,1.0,5.0,76,0.00,,---,0.00,VWS V13.01,2013-06-02 16:32:00,
2013-06-02 13:02:00,72.7,67.2,29.97,North,349,0.0,3.0,83,0.16,,---,0.16,VWS V13.01,2013-06-02 17:02:00,
2013-06-02 13:32:00,71.0,67.9,29.96,North,351,0.0,3.0,90,0.42,,---,0.42,VWS V13.01,2013-06-02 17:32:00,
2013-06-02 14:02:00,72.5,69.4,29.94,SW,222,0.0,3.0,90,0.42,,---,0.42,VWS V13.01,2013-06-02 18:02:00,
2013-06-02 14:32:00,74.4,70.3,29.94,SW,226,0.0,2.0,87,0.26,,---,0.42,VWS V13.01,2013-06-02 18:32:00,
2013-06-02 15:02:00,73.9,68.4,29.93,WSW,249,0.0,3.0,83,0.00,,---,0.42,VWS V13.01,2013-06-02 19:02:00,
2013-06-02 15:32:00,74.3,69.2,29.91,NW,323,0.0,4.0,84,0.00,,---,0.42,VWS V13.01,2013-06-02 19:32:00,
2013-06-02 16:02:00,73.0,68.9,29.91,WNW,302,0.0,2.0,87,0.02,,---,0.44,VWS V13.01,2013-06-02 20:02:00,
2013-06-02 16:32:00,72.1,69.0,29.90,WNW,302,0.0,1.0,90,0.06,,---,0.48,VWS V13.01,2013-06-02 20:32:00,
2013-06-02 17:02:00,71.2,68.1,29.91,NNW,335,0.0,3.0,90,0.19,,---,0.61,VWS V13.01,2013-06-02 21:02:00,
2013-06-02 17:32:00,71.1,68.7,29.90,NNW,335,0.0,1.0,92,0.23,,---,0.67,VWS V13.01,2013-06-02 21:32:00,
2013-06-02 18:02:00,70.4,68.3,29.89,NNW,335,0.0,3.0,93,0.25,,---,0.73,VWS V13.01,2013-06-02 22:02:00,
2013-06-02 18:32:00,70.4,68.6,29.91,NNW,335,0.0,1.0,94,0.12,,---,0.73,VWS V13.01,2013-06-02 22:32:00,
2013-06-02 19:02:00,68.8,66.4,29.89,WNW,301,0.0,4.0,92,0.20,,---,0.87,VWS V13.01,2013-06-02 23:02:00,
2013-06-02 19:32:00,68.5,66.4,29.90,SSW,199,0.0,5.0,93,0.20,,---,0.93,VWS V13.01,2013-06-02 23:32:00,
2013-06-02 20:02:00,68.0,66.2,29.89,SSW,199,0.0,2.0,94,0.23,,---,0.96,VWS V13.01,2013-06-03 00:02:00,
2013-06-02 20:32:00,67.9,66.4,29.89,SSW,199,0.0,1.0,95,0.11,,---,0.98,VWS V13.01,2013-06-03 00:32:00,
2013-06-02 21:02:00,68.1,66.6,29.90,SSW,199,0.0,2.0,95,0.05,,---,0.98,VWS V13.01,2013-06-03 01:02:00,
2013-06-02 21:32:00,67.9,66.4,29.90,SSW,199,0.0,0.0,95,0.02,,---,0.98,VWS V13.01,2013-06-03 01:32:00,
2013-06-02 22:02:00,67.5,66.0,29.90,SSW,199,0.0,0.0,95,0.00,,---,0.98,VWS V13.01,2013-06-03 02:02:00,
2013-06-02 22:32:00,67.6,66.4,29.91,SSW,199,0.0,1.0,96,0.00,,---,0.98,VWS V13.01,2013-06-03 02:32:00,
2013-06-02 23:02:00,67.3,66.1,29.91,SSW,199,0.0,1.0,96,0.00,,---,0.98,VWS V13.01,2013-06-03 03:02:00,
2013-06-02 23:32:00,67.1,65.9,29.90,SSW,199,0.0,1.0,96,0.00,,---,0.98,VWS V13.01,2013-06-03 03:32:00,